Location: Gollag?dem
(17.0207°N, 80.7261°E)
Time: 07:33:27
(UTC+00:00)

Meteosat 1 Rocket2 - Pass Details

Date: 03 August 2024
Orbit: 484 x 2282 km, 28.3° (Epoch: 10 September)

Event Time Altitude Azimuth Distance (km) Brightness Sun altitude
Rises 13:38:47 0° 219° (SW) 3,398 7.1 -7.6°
Reaches altitude 10° 13:42:14 10° 203° (SSW) 2,176 5.9 -8.4°
Maximum altitude 13:45:48 20° 156° (SSE) 1,386 4.5 -9.2°
Enters shadow 13:48:08 13° 114° (ESE) 1,611 4.5 -9.7°
